CDT,Max TemperatureF,Mean TemperatureF,Min TemperatureF,Max Dew PointF,MeanDew PointF,Min DewpointF,Max Humidity, Mean Humidity, Min Humidity, Max Sea Level PressureIn, Mean Sea Level PressureIn, Min Sea Level PressureIn, Max VisibilityMiles, Mean VisibilityMiles, Min VisibilityMiles, Max Wind SpeedMPH, Mean Wind SpeedMPH, Max Gust SpeedMPH,PrecipitationIn, CloudCover, Events, WindDirDegrees
2012-9-1,102,81,62,59,53,47,67,40,16,29.97,29.89,29.80,,,,23,15,31,0.00,,,149
2012-9-2,97,84,71,60,55,46,63,39,18,29.88,29.80,29.75,,,,17,13,25,0.00,,,190
2012-9-3,96,79,63,63,56,51,78,54,22,29.96,29.84,29.73,,,,23,9,31,0.07,,,141
2012-9-4,98,76,55,63,53,43,96,54,17,29.87,29.78,29.63,,,,20,7,28,0.00,,,106
2012-9-5,81,70,60,52,41,34,63,39,19,30.03,29.94,29.80,,,,21,13,30,0.00,,,353
2012-9-6,89,71,54,48,43,39,67,41,19,29.96,29.86,29.76,,,,20,9,31,0.00,,,107
2012-9-7,75,65,54,50,43,37,70,48,26,30.18,30.11,29.97,,,,18,10,29,0.00,,,347
2012-9-8,87,66,46,43,35,26,77,40,16,30.18,30.12,30.02,,,,23,10,33,0.00,,,318
2012-9-9,82,62,44,39,33,28,76,37,14,30.26,30.13,29.94,,,,17,7,23,0.00,,,151
2012-9-10,100,82,64,42,39,33,43,25,10,29.92,29.71,29.58,,,,30,18,32,0.00,,,190
2012-9-11,87,74,60,47,39,31,62,25,17,29.99,29.71,29.57,,,,20,13,28,0.00,,,308
2012-9-12,69,61,52,49,46,43,83,64,45,30.30,30.19,30.04,,,,12,6,,0.06,,,233
2012-9-13,82,64,46,48,40,27,93,51,14,30.38,30.30,30.22,,,,21,7,24,0.00,,,246
2012-9-14,82,64,46,43,33,24,71,39,12,30.32,30.24,30.15,,,,12,7,16,0.00,,,290
2012-9-15,93,70,46,42,36,30,71,34,11,30.14,29.99,29.88,,,,20,9,24,0.00,,,182
2012-9-16,86,68,53,46,38,35,58,36,18,30.04,29.91,29.85,,,,28,13,38,0.00,,,37
2012-9-17,68,56,46,44,36,24,83,52,24,30.15,30.11,30.04,,,,23,14,30,0.00,,,348
2012-9-18,82,60,37,36,32,27,82,42,17,30.12,29.95,29.78,,,,15,5,22,0.00,,,229
2012-9-19,75,64,52,38,32,24,52,33,19,30.02,29.88,29.73,,,,25,10,39,0.00,,,310
2012-9-20,73,60,48,35,29,23,48,33,17,30.06,29.99,29.88,,,,9,5,,0.00,,,244
2012-9-21,75,63,51,36,33,28,54,35,20,30.07,29.94,29.86,,,,18,11,30,0.00,,,329
2012-9-22,64,46,30,32,24,20,76,44,21,30.36,30.29,30.12,,,,20,9,,0.00,,,38
2012-9-23,72,54,37,29,25,21,67,40,16,30.32,30.22,30.08,,,,22,10,28,0.00,,,119
2012-9-24,84,62,43,34,31,28,65,35,14,30.07,29.93,29.82,,,,12,5,,0.00,,,237
2012-9-25,82,62,43,39,34,31,68,39,17,29.98,29.89,29.83,,,,10,5,,0.00,,,4
2012-9-26,77,60,44,38,36,33,73,45,22,30.15,30.09,29.97,,,,12,9,,0.00,,,121
2012-9-27,84,63,44,42,35,30,71,41,15,30.19,30.14,30.08,,,,12,8,,0.00,,,133
2012-9-28,82,64,46,35,26,14,56,30,8,30.17,30.12,30.07,,,,14,6,21,0.00,,,130
2012-9-29,84,64,44,43,32,25,61,35,13,30.11,30.04,29.96,,,,15,7,23,0.00,,,149
2012-9-30,86,65,46,51,43,35,71,44,27,29.99,29.94,29.88,,,,15,6,21,0.00,,,34